Tracking 29528 objects as of 13-Sep-2024
HD Live streaming from Space Station
objects crossing your sky now

ANNA 1B

Track ANNA 1B now!
10-day predictions
ANNA 1B is classified as:


NORAD ID: 446
Int'l Code: 1962-060A
Perigee: 1,081.3 km
Apogee: 1,186.4 km
Inclination: 50.1 °
Period: 107.8 minutes
Semi major axis: 7504 km
RCS: 0.8414 m2 (medium)
Launch date: October 31, 1962
Source: United States (US)
Launch site: AIR FORCE EASTERN TEST RANGE (AFETR)
Your satellite tracking list
Your tracking list is empty




NASA's NSSDC Master Catalog

Two Line Element Set (TLE):
1 00446U 62060A   24256.44932125 -.00000082  00000-0  84986-4 0  9997
2 00446  50.1415 158.3456 0070013 267.7452 264.6687 13.35328159 17825
Source of the keplerian elements: AFSPC